This demonstration page uses our WeatherBlox Daily Observations layout. Learn more.

Left ArrowRight Arrow

44.31136, -96.79839

Hourly Observations for August 7, 2018

Temp ( °F °C ) Dew Point ( °F °C ) Humidity (%) Winds ( mph kmh ) Pressure ( in mb ) Visibility ( mi km ) Precip ( " mm )
12:03 am 00:03 Cloudy with Thunderstorms 66 19 63 17 88 88 SW 23 37 30.06 1018 6 10 0.02 0.51
12:07 am 00:07 Cloudy with Strong Thunderstorms 64 18 61 16 88 88 W 16 26 30.09 1019 2 3 0.23 5.84
12:13 am 00:13 Cloudy with Strong Thunderstorms 64 18 63 17 94 94 SSW 10 17 30.09 1019 1 2 0.47 11.94
12:20 am 00:20 Cloudy with Strong Thunderstorms 64 18 63 17 94 94 WNW 6 9 30.06 1018 2 2 0.64 16.26
12:31 am 00:31 Cloudy with Thunderstorms 63 17 61 16 94 94 W 7 11 30.06 1018 3 5 0.73 18.54
12:56 am 00:56 Cloudy with Nearby Thunderstorms 62 16.7 60 15.6 93 93 NNE 5 7 30.09 1019 7 11 0.80 20.32
1:10 am 01:10 Cloudy with Light Rain 63 17 61 16 94 94 ESE 6 9 30.03 1017 9 14 0.01 0.25
1:56 am 01:56 Cloudy with Light Rain 63 17.2 62 16.7 97 97 ESE 8 13 30.04 1017 10 16 0.08 2.03
2:56 am 02:56 Cloudy with Light Rain 63 17.2 62 16.7 97 97 Calm 30.05 1018 10 16 0.01 0.25
3:56 am 03:56 Cloudy 63 17.2 61 16.1 93 93 NE 5 7 30.05 1018 10 16 0.01 0.25
4:56 am 04:56 Cloudy with Light Rain 63 17.2 61 16.1 93 93 ENE 6 9 30.04 1017 10 16 0.00 0.03
5:56 am 05:56 Cloudy 63 17.2 61 16.1 93 93 ESE 6 9 30.01 1016 10 16 0.00 0.03
6:56 am 06:56 Partly Cloudy 62 16.7 61 16.1 96 96 WSW 5 7 30.03 1017 10 16 0.00 0.03
7:56 am 07:56 Mostly Cloudy 63 17.2 61 16.1 93 93 W 6 9 30.05 1018 10 16 0.00 0.00
8:56 am 08:56 Mostly Cloudy 64 17.8 62 16.7 93 93 WSW 5 7 30.07 1018 10 16 0.00 0.00
9:56 am 09:56 Sunny 66 18.9 61 16.1 84 84 SW 3 6 30.06 1018 10 16 0.00 0.00
10:56 am 10:56 Mostly Sunny 69 20.6 62 16.7 78 78 SSE 6 9 30.06 1018 10 16 0.00 0.00
11:56 am 11:56 Sunny 72 22.2 62 16.7 71 71 SE 6 9 30.04 1017 10 16 0.00 0.00
12:56 pm 12:56 Sunny 75 23.9 63 17.2 66 66 SSW 8 13 30.03 1017 10 16 0.00 0.00
1:56 pm 13:56 Mostly Sunny 76 24.4 63 17.2 64 64 SW 7 11 30.01 1016 10 16 0.00 0.00
2:56 pm 14:56 Sunny 77 25 62 16.7 60 60 W 5 7 30.00 1016 10 16 0.00 0.00
3:56 pm 15:56 Sunny 79 26.1 64 17.8 60 60 SW 3 6 29.98 1015 10 16 0.00 0.00
4:56 pm 16:56 Mostly Sunny 79 26.1 63 17.2 58 58 W 5 7 29.97 1015 10 16 0.00 0.00
5:56 pm 17:56 Mostly Sunny 77 25 65 18.3 66 66 WSW 6 9 29.97 1015 10 16 0.00 0.00
6:56 pm 18:56 Sunny 79 26.1 63 17.2 58 58 WSW 3 6 29.96 1015 10 16 0.00 0.00
7:56 pm 19:56 Sunny 77 25 66 18.9 69 69 S 5 7 29.97 1015 10 16 0.00 0.00
8:56 pm 20:56 Clear 73 22.8 67 19.4 81 81 SSW 6 9 29.97 1015 10 16 0.00 0.00
9:56 pm 21:56 Clear 70 21.1 65 18.3 84 84 S 7 11 29.98 1015 10 16 0.00 0.00
10:56 pm 22:56 Clear 69 20.6 65 18.3 87 87 SSW 8 13 29.98 1015 10 16 0.00 0.00
11:56 pm 23:56 Clear 67 19.4 64 17.8 91 91 S 7 11 29.98 1015 10 16 0.00 0.00

Powered by AerisWeather